Weather History for Crookston, MN

Change the Weather History Date:

Saturday, December 8, 2012

  Actual Average Record
Temperature  
Mean Temperature 18 °F -  
Max Temperature 28 °F 24 °F 35 °F (1999)
Min Temperature 8 °F 10 °F -23 °F (2007)
Degree Days  
Heating Degree Days 47    
Moisture  
Dew Point 17 °F    
Average Humidity 88    
Maximum Humidity 100    
Minimum Humidity 73    
Precipitation  
Precipitation 0.00 in - - ()
Sea Level Pressure  
Sea Level Pressure 30.00 in    
Wind  
Wind Speed 9 mph (East)    
Max Wind Speed 16 mph    
Max Gust Speed 23 mph    
Visibility 7 miles    
Events Snow    
Averages and records for this station are not official NWS values.
T = Trace of Precipitation, MM = Missing Value Source: NWS Daily Summary

Daily Weather History Graph

Daily Weather History Graph

Search for Another Location

Airport:

Trip Planner

Search our weather history database for the weather conditions in past years. The results will help you decide how hot, cold, wet, or windy it might be!

Date:

Astronomy

Dec. 08, 2012 Rise Set
Actual Time 8:03 AM CST 4:34 PM CST
Civil Twilight 7:27 AM CST 5:09 PM CST
Nautical Twilight 6:48 AM CST 5:49 PM CST
Astronomical Twilight 6:10 AM CST 6:26 PM CST
Moon 2:09 AM CST (12/8) 1:21 PM CST (12/8)
Length of Visible Light 9h 42m
Length of Day
8h 30m
Waning Crescent, 28% of the Moon is Illuminated
Dec 8
Waning Crescent
Dec 13
New
Dec 19
First Quarter
Dec 28
Full
Jan 4
Last Quarter

Hourly Weather History & Observations

Time (CST) Temp. Windchill Dew Point Humidity Pressure Visibility Wind Dir Wind Speed Gust Speed Precip Events Conditions
12:15 AM 8.6 °F -1.3 °F 3.2 °F 79% 30.08 in 10.0 mi East 5.8 mph - N/A   Mostly Cloudy
12:35 AM 10.4 °F -0.4 °F 5.0 °F 79% 30.08 in 10.0 mi East 6.9 mph - N/A   Overcast
12:54 AM 10.4 °F -1.5 °F 6.8 °F 85% 30.07 in 10.0 mi East 8.1 mph - N/A   Overcast
1:15 AM 12.2 °F 1.7 °F 6.8 °F 79% 30.06 in 10.0 mi East 6.9 mph - N/A   Overcast
1:35 AM 12.2 °F 1.7 °F 6.8 °F 79% 30.06 in 10.0 mi East 6.9 mph - N/A   Overcast
2:15 AM 14.0 °F 1.2 °F 8.6 °F 79% 30.04 in 10.0 mi East 10.4 mph - N/A   Overcast
2:35 AM 14.0 °F 1.2 °F 8.6 °F 79% 30.04 in 10.0 mi East 10.4 mph - N/A   Overcast
2:54 AM 14.0 °F 0.5 °F 8.6 °F 79% 30.03 in 10.0 mi East 11.5 mph - N/A   Overcast
3:15 AM 15.8 °F 2.7 °F 8.6 °F 73% 30.03 in 10.0 mi East 11.5 mph - N/A   Overcast
3:35 AM 15.8 °F 5.1 °F 8.6 °F 73% 30.03 in 10.0 mi East 8.1 mph - N/A   Overcast
3:54 AM 15.8 °F 4.2 °F 8.6 °F 73% 30.02 in 10.0 mi East 9.2 mph - N/A Snow Light Snow
4:15 AM 15.8 °F 5.1 °F 8.6 °F 73% 30.02 in 10.0 mi East 8.1 mph - N/A   Overcast
4:34 AM 15.8 °F 3.4 °F 8.6 °F 73% 30.01 in 10.0 mi ESE 10.4 mph - N/A   Overcast
4:54 AM 15.8 °F 4.2 °F 10.4 °F 79% 30.01 in 10.0 mi ESE 9.2 mph - N/A Snow Light Snow
5:15 AM 15.8 °F 3.4 °F 10.4 °F 79% 30.00 in 10.0 mi ESE 10.4 mph - N/A   Overcast
5:34 AM 15.8 °F 3.4 °F 10.4 °F 79% 29.99 in 10.0 mi ESE 10.4 mph - N/A   Overcast
5:54 AM 17.6 °F 5.0 °F 10.4 °F 73% 29.98 in 10.0 mi ESE 11.5 mph - N/A   Overcast
6:15 AM 17.6 °F 5.7 °F 12.2 °F 79% 29.98 in 10.0 mi ESE 10.4 mph - N/A   Overcast
6:34 AM 17.6 °F 5.7 °F 12.2 °F 79% 29.97 in 10.0 mi ESE 10.4 mph - N/A   Overcast
6:54 AM 17.6 °F 5.7 °F 14.0 °F 86% 29.97 in 10.0 mi ESE 10.4 mph - N/A   Overcast
7:15 AM 17.6 °F 6.4 °F 15.8 °F 93% 29.97 in 7.0 mi ESE 9.2 mph - N/A   Overcast
7:34 AM 17.6 °F 6.4 °F 15.8 °F 93% 29.96 in 5.0 mi ESE 9.2 mph - N/A Snow Light Snow
7:54 AM 19.4 °F 7.9 °F 15.8 °F 86% 29.96 in 2.0 mi SE 10.4 mph - N/A Snow Light Snow
8:15 AM 19.4 °F 8.6 °F 15.8 °F 86% 29.96 in 2.0 mi ESE 9.2 mph - N/A Snow Light Snow
8:34 AM 19.4 °F 8.6 °F 17.6 °F 93% 29.96 in 5.0 mi ESE 9.2 mph - N/A Snow Light Snow
8:54 AM 21.2 °F 10.9 °F 17.6 °F 86% 29.96 in 4.0 mi SE 9.2 mph - N/A Snow Light Snow
9:14 AM 21.2 °F 10.9 °F 19.4 °F 93% 29.96 in 5.0 mi SE 9.2 mph - N/A Snow Light Snow
9:34 AM 23.0 °F 12.4 °F 19.4 °F 86% 29.96 in 1.8 mi SE 10.4 mph - N/A Snow Light Snow
9:55 AM 23.0 °F 13.1 °F 21.2 °F 93% 29.96 in 1.5 mi SSE 9.2 mph - N/A Snow Light Snow
10:14 AM 24.8 °F 15.3 °F 23.0 °F 93% 29.97 in 1.5 mi SSE 9.2 mph - N/A Snow Light Snow
10:35 AM 26.6 °F 17.5 °F 24.8 °F 93% 29.97 in 3.0 mi South 9.2 mph - N/A Snow Light Snow
10:54 AM 26.6 °F 16.8 °F 24.8 °F 93% 29.97 in 4.0 mi South 10.4 mph - N/A Snow Light Snow
11:14 AM 26.6 °F 16.2 °F 24.8 °F 93% 29.96 in 5.0 mi South 11.5 mph - N/A Snow Light Snow
11:35 AM 26.6 °F 16.2 °F 24.8 °F 93% 29.95 in 5.0 mi South 11.5 mph - N/A   Overcast
11:54 AM 26.6 °F 16.2 °F 24.8 °F 93% 29.95 in 5.0 mi South 11.5 mph - N/A   Overcast
12:14 PM 28.4 °F 18.5 °F 26.6 °F 93% 29.95 in 3.0 mi South 11.5 mph - N/A   Overcast
12:35 PM 28.4 °F 17.5 °F 26.6 °F 93% 29.95 in 4.0 mi South 13.8 mph - N/A   Overcast
12:54 PM 28.4 °F 18.0 °F 26.6 °F 93% 29.94 in 4.0 mi South 12.7 mph - N/A   Overcast
1:14 PM 28.4 °F 18.5 °F 26.6 °F 93% 29.94 in 4.0 mi SSE 11.5 mph - N/A   Overcast
1:35 PM 28.4 °F 19.7 °F 26.6 °F 93% 29.93 in 4.0 mi SSE 9.2 mph - N/A   Overcast
1:54 PM 28.4 °F 20.4 °F 26.6 °F 93% 29.93 in 4.0 mi SSE 8.1 mph - N/A   Overcast
2:14 PM 28.4 °F 21.2 °F 26.6 °F 93% 29.93 in 5.0 mi SSE 6.9 mph - N/A   Overcast
2:35 PM 28.4 °F 22.2 °F 26.6 °F 93% 29.93 in 5.0 mi SE 5.8 mph - N/A   Overcast
2:54 PM 28.4 °F 24.6 °F 26.6 °F 93% 29.93 in 5.0 mi SSE 3.5 mph - N/A   Overcast
3:14 PM 28.4 °F - 26.6 °F 93% 29.94 in 5.0 mi Calm Calm - N/A   Overcast
3:35 PM 28.4 °F - 26.6 °F 93% 29.94 in 5.0 mi Calm Calm - N/A   Overcast
3:54 PM 28.4 °F 23.3 °F 26.6 °F 93% 29.95 in 4.0 mi WNW 4.6 mph - N/A   Overcast
4:14 PM 24.8 °F 16.1 °F 24.8 °F 100% 29.96 in 5.0 mi NW 8.1 mph - N/A Snow Light Snow
4:35 PM 24.8 °F 16.1 °F 21.2 °F 86% 29.97 in 7.0 mi North 8.1 mph 16.1 mph N/A   Overcast
4:54 PM 24.8 °F 19.1 °F 23.0 °F 93% 29.97 in 10.0 mi NNW 4.6 mph - N/A   Overcast
5:14 PM 23.0 °F 14.7 °F 21.2 °F 93% 29.98 in 10.0 mi NNW 6.9 mph - N/A   Overcast
5:35 PM 23.0 °F 13.9 °F 21.2 °F 93% 29.98 in 10.0 mi North 8.1 mph - N/A   Overcast
5:54 PM 23.0 °F 12.4 °F 21.2 °F 93% 29.99 in 10.0 mi North 10.4 mph - N/A   Overcast
6:14 PM 23.0 °F 12.4 °F 21.2 °F 93% 30.00 in 10.0 mi North 10.4 mph - N/A   Overcast
6:35 PM 23.0 °F 11.7 °F 21.2 °F 93% 30.00 in 10.0 mi North 11.5 mph - N/A   Overcast
6:54 PM 23.0 °F 11.1 °F 21.2 °F 93% 30.01 in 10.0 mi North 12.7 mph - N/A   Overcast
7:15 PM 21.2 °F 7.8 °F 19.4 °F 93% 30.01 in 10.0 mi North 15.0 mph - N/A   Overcast
7:54 PM 19.4 °F 7.2 °F 17.6 °F 93% 30.03 in 10.0 mi NNE 11.5 mph - N/A   Overcast
8:15 PM 19.4 °F 6.6 °F 17.6 °F 93% 30.03 in 10.0 mi NNE 12.7 mph - N/A   Overcast
8:35 PM 19.4 °F 7.2 °F 17.6 °F 93% 30.04 in 10.0 mi NNE 11.5 mph - N/A Snow Light Snow
8:54 PM 19.4 °F 7.2 °F 17.6 °F 93% 30.05 in 10.0 mi NNE 11.5 mph - N/A   Overcast
9:15 PM 19.4 °F 6.6 °F 15.8 °F 86% 30.05 in 10.0 mi NNE 12.7 mph - N/A   Overcast
9:35 PM 19.4 °F 6.6 °F 15.8 °F 86% 30.07 in 10.0 mi NNE 12.7 mph - N/A   Overcast
9:54 PM 19.4 °F 5.5 °F 15.8 °F 86% 30.07 in 10.0 mi NNE 15.0 mph 18.4 mph N/A   Overcast
10:15 PM 17.6 °F 2.7 °F 15.8 °F 93% 30.08 in 3.0 mi NNE 16.1 mph 23.0 mph N/A Snow Light Snow
10:35 PM 17.6 °F 3.7 °F 15.8 °F 93% 30.08 in 2.5 mi NNE 13.8 mph 18.4 mph N/A Snow Light Snow
10:54 PM 17.6 °F 4.3 °F 15.8 °F 93% 30.09 in 2.5 mi NNE 12.7 mph 18.4 mph N/A Snow Light Snow
11:15 PM 17.6 °F 4.3 °F 15.8 °F 93% 30.11 in 2.0 mi NNE 12.7 mph - N/A Snow Light Snow
11:34 PM 17.6 °F 3.2 °F 14.0 °F 86% 30.11 in 2.5 mi NNE 15.0 mph - N/A Snow Light Snow
11:54 PM 15.8 °F 1.4 °F 12.2 °F 86% 30.12 in 2.5 mi NNE 13.8 mph 20.7 mph N/A Snow Light Snow